Stations météo

Publicité
Aeroport de Brive-Souillac, France (7439): Température de l'air & dewpoint: 20.01.2020 01:00:00 - 26.01.2020 01:00:00 (CET)Aeroport de Brive-Souillac, France (7439): Vitesse du vent & gusts: 20.01.2020 01:00:00 - 26.01.2020 01:00:00 (CET)Aeroport de Brive-Souillac, France (7439): Direction du vent: 20.01.2020 01:00:00 - 26.01.2020 01:00:00 (CET)Aeroport de Brive-Souillac, France (7439): reduced air pressure: 20.01.2020 01:00:00 - 26.01.2020 01:00:00 (CET)Aeroport de Brive-Souillac, France (7439): visibility: 20.01.2020 01:00:00 - 26.01.2020 01:00:00 (CET)Aeroport de Brive-Souillac, France (7439): Quantités de précipitations: 20.01.2020 01:00:00 - 26.01.2020 01:00:00 (CET)
Date & Time tt [°C] td [°C] ff [km/h] ff [knt] fx [km/h] fx [knt] dd ppp [hPa] vv [km] rr [mm]
26.01.2020 01:00:00 - - - - - - - - - -
26.01.2020 00:00:00 3,3 2,7 2 1 3 2 ESE 1019,2 31 0,0
25.01.2020 23:00:00 3,4 2,5 0 0 5 3 N 1019,4 30 0,0
25.01.2020 22:00:00 5,2 3,5 4 2 9 5 E 1019,1 28 0,0
25.01.2020 21:00:00 8,5 4,7 8 5 16 9 SSE 1018,6 39 0,0
25.01.2020 20:00:00 6,1 4,3 8 5 11 6 SE 1018,7 38 0,0
25.01.2020 19:00:00 6,1 3,9 2 1 4 2 E 1018,4 40 0,0
25.01.2020 18:00:00 8,9 5,3 0 0 5 3 N 1017,8 51 0,0
25.01.2020 17:00:00 11,9 6,0 5 3 16 8 ESE 1017,4 57 0,0
25.01.2020 16:00:00 12,8 5,9 9 5 18 10 E 1017,6 44 0,0
25.01.2020 15:00:00 14,1 6,0 6 4 17 9 S 1017,9 40 0,0
25.01.2020 14:00:00 13,4 6,0 10 5 21 12 S 1018,6 58 0,0
25.01.2020 13:00:00 12,6 6,4 12 7 24 13 SSE 1019,6 32 0,0
25.01.2020 12:00:00 11,1 6,0 11 6 17 9 SE 1020,4 57 0,0
25.01.2020 11:00:00 9,4 5,8 10 6 17 9 SE 1020,5 60 0,0
25.01.2020 10:00:00 5,7 5,4 8 4 10 5 SE 1020,7 57 0,0
25.01.2020 09:00:00 0,1 0,1 2 1 6 3 S 1021,6 48 0,0
25.01.2020 08:00:00 -0,2 -0,5 3 1 8 4 SE 1021,3 25 0,0
25.01.2020 07:00:00 0,4 0,4 5 3 10 5 SE 1021,2 20 0,0
25.01.2020 06:00:00 -0,5 -0,6 6 4 9 5 SE 1021,2 25 0,0
25.01.2020 05:00:00 -0,6 -0,7 2 1 6 3 SE 1021,2 28 0,0
25.01.2020 04:00:00 -0,7 -0,8 0 0 3 2 N 1021,6 26 0,0
25.01.2020 03:00:00 -0,5 -0,6 0 0 3 2 N 1021,9 23 0,0
25.01.2020 02:00:00 -0,3 -0,6 0 0 0 0 N 1022,2 19 0,0
25.01.2020 01:00:00 0,3 0,0 0 0 0 0 N 1022,4 27 0,0
25.01.2020 00:00:00 1,0 0,7 0 0 3 1 N 1022,6 23 0,0
24.01.2020 23:00:00 1,7 1,3 0 0 3 2 N 1022,5 31 0,0
24.01.2020 22:00:00 2,5 1,8 0 0 3 2 N 1022,4 31 0,0
24.01.2020 21:00:00 4,0 3,0 2 1 7 4 ESE 1022,1 28 0,0
24.01.2020 20:00:00 5,8 4,4 3 2 6 4 SE 1021,7 45 0,0
24.01.2020 19:00:00 7,8 5,3 5 3 9 5 ESE 1021,1 50 0,0
24.01.2020 18:00:00 10,5 6,3 6 3 12 7 SE 1020,4 59 0,0
24.01.2020 17:00:00 12,3 6,6 9 5 20 11 SE 1019,9 60 0,0
24.01.2020 16:00:00 13,4 6,9 10 5 20 11 SE 1019,9 58 0,0
24.01.2020 15:00:00 12,7 7,2 12 6 19 10 ESE 1020,4 56 0,0
24.01.2020 14:00:00 12,7 7,2 7 4 22 12 SE 1021,0 55 0,0
24.01.2020 13:00:00 12,2 7,1 11 6 23 12 SE 1021,5 57 0,0
24.01.2020 12:00:00 11,3 6,6 13 7 23 13 ESE 1022,1 50 0,0
24.01.2020 11:00:00 10,1 7,0 5 3 13 7 SE 1022,3 34 0,0
24.01.2020 10:00:00 3,9 3,9 4 2 6 3 ESE 1023,0 3,2 0,0
24.01.2020 09:00:00 0,7 0,7 0 0 4 2 N 1023,3 13 0,0
24.01.2020 08:00:00 0,2 0,1 2 1 4 2 WSW 1022,9 5 0,0
24.01.2020 07:00:00 0,2 0,1 0 0 3 2 N 1022,9 3,3 0,0
24.01.2020 06:00:00 0,6 0,5 0 0 4 2 N 1022,9 0,8 0,0
24.01.2020 05:00:00 1,1 0,8 2 1 5 3 WNW 1022,9 0,7 0,0
24.01.2020 04:00:00 2,1 1,5 0 0 3 2 N 1023,0 18 0,0
24.01.2020 03:00:00 4,1 3,4 2 1 9 5 SSE 1023,0 15 0,0
24.01.2020 02:00:00 7,9 6,5 7 4 18 10 SSE 1022,1 36 0,0
24.01.2020 01:00:00 7,6 5,7 9 5 16 9 S 1022,2 50 0,0
24.01.2020 00:00:00 9,5 6,4 9 5 19 11 SSE 1021,5 54 0,0
23.01.2020 23:00:00 9,6 5,9 9 5 20 11 SSE 1021,5 56 0,0
23.01.2020 22:00:00 10,7 6,4 14 8 27 15 ESE 1021,2 53 0,0
23.01.2020 21:00:00 11,2 6,3 16 9 33 18 SE 1021,0 53 0,0
23.01.2020 20:00:00 11,7 6,4 12 7 29 16 SE 1021,0 49 0,0
23.01.2020 19:00:00 11,6 6,7 17 9 26 14 ESE 1020,5 43 0,0
23.01.2020 18:00:00 11,6 7,3 19 10 47 25 ESE 1020,4 42 0,0
23.01.2020 17:00:00 12,5 7,2 31 17 49 26 ESE 1020,3 43 0,0
23.01.2020 16:00:00 13,3 6,6 16 9 23 12 ESE 1020,4 50 0,0
23.01.2020 15:00:00 12,6 6,4 6 3 11 6 ENE 1020,7 49 0,0
23.01.2020 14:00:00 12,2 5,6 7 4 24 13 NE 1021,4 53 0,0
23.01.2020 13:00:00 11,8 4,7 10 5 24 13 E 1022,7 55 0,0
23.01.2020 12:00:00 11,7 4,4 15 8 41 22 ESE 1023,3 55 0,0
23.01.2020 11:00:00 11,0 1,0 11 6 18 10 SSE 1023,9 60 0,0
23.01.2020 10:00:00 9,8 1,9 0 0 10 5 N 1023,0 60 0,0
23.01.2020 09:00:00 11,8 0,8 9 5 18 10 E 1022,4 60 0,0
23.01.2020 08:00:00 12,3 0,4 12 6 24 13 E 1022,3 60 0,0
23.01.2020 07:00:00 9,8 1,9 8 4 15 8 E 1022,8 60 0,0
23.01.2020 06:00:00 10,6 2,2 9 5 24 13 SE 1023,0 60 0,0
23.01.2020 05:00:00 9,6 2,7 11 6 14 8 ESE 1023,3 60 0,0
23.01.2020 04:00:00 7,5 2,0 5 3 11 6 E 1024,3 53 0,0
23.01.2020 03:00:00 7,8 2,0 9 5 11 6 ESE 1024,4 60 0,0
23.01.2020 02:00:00 8,8 2,6 8 4 13 7 E 1024,2 60 0,0
23.01.2020 01:00:00 10,4 2,5 5 3 18 10 SE 1024,4 60 0,0
23.01.2020 00:00:00 8,2 3,2 8 4 13 7 E 1024,8 60 0,0
22.01.2020 23:00:00 10,2 3,2 4 2 19 10 ENE 1024,5 60 0,0
22.01.2020 22:00:00 12,0 3,7 15 8 23 13 E 1024,4 60 0,0
22.01.2020 21:00:00 12,3 4,8 16 9 28 15 E 1024,5 60 0,0
22.01.2020 20:00:00 12,3 5,2 18 10 27 14 E 1024,6 60 0,0
22.01.2020 19:00:00 11,9 5,3 14 7 26 14 E 1024,6 60 0,0
22.01.2020 18:00:00 12,6 5,3 11 6 25 14 ENE 1024,7 60 0,0
22.01.2020 17:00:00 13,2 5,6 17 9 29 15 E 1024,8 60 0,0
22.01.2020 16:00:00 13,7 5,8 17 9 32 18 E 1025,0 59 0,0
22.01.2020 15:00:00 13,9 6,0 24 13 36 19 E 1025,4 60 0,0
22.01.2020 14:00:00 13,6 6,0 22 12 38 21 E 1026,1 60 0,0
22.01.2020 13:00:00 11,9 5,5 19 11 32 17 E 1027,2 57 0,0
22.01.2020 12:00:00 11,5 3,5 17 9 27 14 E 1028,0 56 0,0
22.01.2020 11:00:00 10,8 2,6 16 9 26 14 E 1028,5 54 0,2
22.01.2020 10:00:00 8,6 2,2 7 4 14 8 ESE 1028,6 60 0,0
22.01.2020 09:00:00 3,8 2,2 2 1 5 3 NW 1029,2 60 0,0
22.01.2020 08:00:00 3,2 1,2 3 2 8 4 SW 1029,4 60 0,0
22.01.2020 07:00:00 2,8 -0,1 4 2 8 4 WSW 1029,3 60 0,0
22.01.2020 06:00:00 1,5 0,2 0 0 7 4 N 1029,6 60 0,0
22.01.2020 05:00:00 1,7 0,4 2 1 6 3 N 1030,1 60 0,0
22.01.2020 04:00:00 1,0 -0,2 3 1 9 5 WNW 1031,0 60 0,0
22.01.2020 03:00:00 0,5 -0,4 3 2 6 3 NNW 1031,6 60 0,0
22.01.2020 02:00:00 0,6 -0,7 2 1 11 6 W 1032,1 30 0,0
22.01.2020 01:00:00 1,7 0,1 2 1 7 4 NNW 1032,2 60 0,0
22.01.2020 00:00:00 3,8 0,0 2 1 9 5 NNW 1032,0 60 0,0
21.01.2020 23:00:00 2,5 1,3 4 2 8 4 WNW 1032,4 58 0,0
21.01.2020 22:00:00 2,0 0,8 2 1 5 3 WNW 1032,6 58 0,0
21.01.2020 21:00:00 4,4 2,4 2 1 10 5 NNW 1032,4 60 0,0
21.01.2020 20:00:00 8,8 3,6 6 4 10 6 NNE 1031,9 60 0,0
21.01.2020 19:00:00 10,0 3,9 5 3 15 8 NNE 1031,6 60 0,0
21.01.2020 18:00:00 10,7 4,2 8 4 19 10 NNE 1031,6 60 0,0
21.01.2020 17:00:00 11,8 4,0 11 6 19 11 ENE 1031,7 60 0,0
21.01.2020 16:00:00 11,9 4,4 11 6 23 12 E 1032,1 60 0,0
21.01.2020 15:00:00 12,1 4,3 15 8 30 16 E 1032,4 58 0,0
21.01.2020 14:00:00 11,9 3,9 18 10 32 17 E 1033,0 60 0,0
21.01.2020 13:00:00 9,0 3,0 9 5 18 10 NNE 1034,1 58 0,0
21.01.2020 12:00:00 6,9 2,4 9 5 16 9 N 1035,1 57 0,0
21.01.2020 11:00:00 5,3 1,8 6 4 15 8 NW 1035,3 53 0,0
21.01.2020 10:00:00 3,9 0,8 6 3 9 5 N 1035,4 40 0,0
21.01.2020 09:00:00 3,0 -1,4 6 3 13 7 N 1035,5 41 0,0
21.01.2020 08:00:00 1,7 -2,1 8 4 11 6 WNW 1035,5 51 0,0
21.01.2020 07:00:00 1,5 -2,5 3 1 9 5 SSW 1035,6 56 0,0
21.01.2020 06:00:00 2,2 -2,7 7 4 11 6 SE 1035,6 55 0,0
21.01.2020 05:00:00 3,0 -2,3 9 5 15 8 ESE 1035,5 56 0,0
21.01.2020 04:00:00 2,8 -2,1 9 5 14 7 SE 1036,0 58 0,0
21.01.2020 03:00:00 1,5 -0,7 7 4 10 6 N 1035,9 30 0,0
21.01.2020 02:00:00 0,5 -1,6 2 1 5 3 N 1036,6 43 0,0
21.01.2020 01:00:00 -0,1 -2,2 3 2 8 4 S 1037,1 46 0,0
21.01.2020 00:00:00 -0,7 -2,3 2 1 4 2 N 1037,9 44 0,0
20.01.2020 23:00:00 -1,0 -3,0 0 0 4 2 N 1037,9 49 0,0
20.01.2020 22:00:00 0,3 -3,3 2 1 14 8 NNE 1037,7 54 0,0
20.01.2020 21:00:00 1,5 -3,4 11 6 14 8 N 1037,3 57 0,0
20.01.2020 20:00:00 2,5 -3,4 8 4 18 10 N 1037,3 59 0,0
20.01.2020 19:00:00 3,3 -3,3 10 5 24 13 N 1036,8 60 0,0
20.01.2020 18:00:00 4,9 -3,4 13 7 21 11 NNE 1036,5 60 0,0
20.01.2020 17:00:00 6,4 -3,3 7 4 21 11 NE 1036,2 55 0,0
20.01.2020 16:00:00 7,0 -3,6 14 7 23 12 NNE 1035,9 59 0,0
20.01.2020 15:00:00 7,3 -3,9 11 6 24 13 NE 1035,8 58 0,0
20.01.2020 14:00:00 6,8 -3,5 13 7 29 15 NE 1036,3 60 0,0
20.01.2020 13:00:00 6,2 -4,0 16 9 28 15 NE 1036,8 60 0,0
20.01.2020 12:00:00 5,2 -3,9 18 10 34 19 NE 1037,2 49 0,0
20.01.2020 11:00:00 4,4 -4,1 16 9 32 17 NE 1037,2 48 0,0
20.01.2020 10:00:00 3,1 -3,7 15 8 33 18 NE 1037,3 57 0,0
20.01.2020 09:00:00 2,0 -4,1 19 10 29 16 NE 1037,0 59 0,0
20.01.2020 08:00:00 1,8 -4,1 12 6 31 17 NNE 1036,5 60 0,0
20.01.2020 07:00:00 1,8 -4,3 7 4 29 15 NNE 1036,0 60 0,0
20.01.2020 06:00:00 2,1 -4,0 16 9 32 17 NNE 1035,8 60 0,0
20.01.2020 05:00:00 2,9 -4,1 14 8 42 23 NNE 1035,6 60 0,0
20.01.2020 04:00:00 3,1 -3,5 22 12 41 22 NNE 1035,8 60 0,0
20.01.2020 03:00:00 3,0 -3,2 19 11 39 21 NNE 1036,5 60 0,0
20.01.2020 02:00:00 3,4 -3,0 25 13 42 23 NNE 1036,9 60 0,0
20.01.2020 01:00:00 3,3 -3,1 22 12 44 24 NNE 1037,6 60 0,0

tt = Température de l'air
td = dewpoint
ff = Vitesse du vent
fx = gusts
dd = Direction du vent
ppp = reduced air pressure
vv = visibility
rr = Quantités de précipitations

stations d'obs. à proximité